ORBCOMM FM118 [+] (41183 NORAD) Tracking and Keplerian Element Data

This shows tracking and keplerian element data for the satellite.

Feedback or suggestion? Click here.




ElementValue
Catalog41183
NameORBCOMM FM118 [+]
Epoch Orbit30532
Epoch Day262.23467385
Epoch Year2021
RAAN240.8872
Inclination47.0031
Eccentricity0.0001059
Argument of Perigee338.5021
Mean Anonmoly21.5819
Mean Motion14.54889749
Decay Rate-4.3E-07
L11 41183U 15081E 21262.23467385 -.00000043 00000-0 28257-4 0 9999
L22 41183 47.0031 240.8872 0001059 338.5021 21.5819 14.54889749305320

Live tracking and technical data element details for ORBCOMM FM118 [+] (NORAD 41183). ORBCOMM FM118 [+] can be tracked NOW for your location showing map with azimuth and elevation plus other details from your city location.

Track the satellite on the map from your city or location and see movement details for azimuth, elevation, latitude, longitude, range, height, and movement on the map or in text.







IsCatalogInMostPopularTable: catalog: 41183, numindb: 525
Update: records affected: 1



GetName: 41183 ORBCOMM FM118 [+]

Hit Count: updated at: Sun, 26 Sep 2021 00:55:22 GMT